Overview Statistics Trail Chart Weather Telemetry Raw packets
 

This is the latest recevied weather packets stored in our database for station/object ZS1OSS-13. If no packets are shown the sender has not sent any weather packets the latest 10 day(s).

<< 105 106 107 108 109 110 111 >>
Time Temp. Humidity Pressure Rain* Wind** Luminosity Snow
1787750617 25.56° C 45% 1016.1 hPa 0 mm - 417 W/m² -
1787750311 25.56° C 45% 1016.2 hPa 0 mm - 437 W/m² -
1787750006 25.56° C 45% 1016.3 hPa 0 mm - 400 W/m² -
1787749697 25.56° C 45% 1016.3 hPa 0 mm - 409 W/m² -
1787749392 25.56° C 44% 1016.3 hPa 0 mm - 347 W/m² -
1787749092 25.56° C 44% 1016.5 hPa 0 mm - 377 W/m² -
1787748787 25.56° C 44% 1016.5 hPa 0 mm - 463 W/m² -
1787748487 25.56° C 44% 1016.4 hPa 0 mm - 452 W/m² -
1787748183 25.56° C 43% 1016.4 hPa 0 mm - 477 W/m² -
1787747883 26.11° C 43% 1016.4 hPa 0 mm - 509 W/m² -
1787747578 25° C 44% 1016.2 hPa 0 mm - 474 W/m² -
1787747278 25° C 43% 1016.4 hPa 0 mm - 453 W/m² -
1787746973 25.56° C 45% 1016.3 hPa 0 mm - 403 W/m² -
1787746669 25.56° C 44% 1016.5 hPa 0 mm - 475 W/m² -
1787746368 25.56° C 44% 1016.5 hPa 0 mm - 414 W/m² -
1787746067 25.56° C 43% 1016.5 hPa 0 mm - 446 W/m² -
1787745766 25° C 45% 1016.7 hPa 0 mm - 506 W/m² -
1787745465 24.44° C 46% 1016.6 hPa 0 mm - 327 W/m² -
1787745160 24.44° C 45% 1017 hPa 0 mm - 351 W/m² -
1787744856 24.44° C 46% 1016.9 hPa 0 mm - 470 W/m² -
1787744552 25° C 45% 1017 hPa 0 mm - 413 W/m² -
1787744247 25° C 45% 1017.2 hPa 0 mm - 432 W/m² -
1787743943 25° C 45% 1017.1 hPa 0 mm - 526 W/m² -
1787743637 24.44° C 46% 1017.1 hPa 0 mm - 445 W/m² -
1787743336 25° C 46% 1017.4 hPa 0 mm - 463 W/m² -

* Rain latest hour (hover to see other rain measurements)
** Current wind speed in m/s (hover to see current wind gust speed)